Clarksburg, WV

10:39 PM EDT on July 18, 2019 (GMT -0400)
Benedum

Weather History for KCKB - May, 2019

Change the Weather History Date:

Friday, May 31, 2019

  Actual Average Record
Temperature  
Mean Temperature 69 °F -  
Max Temperature 77 °F 78 °F 92 °F (1969)
Min Temperature 60 °F 52 °F 34 °F (1930)
Cooling Degree Days 4    
Month to date cooling degree days 154  
Year to date cooling degree days 179  
Growing Degree Days 20 (Base 50)    
Moisture  
Dew Point 60 °F    
Average Humidity 70    
Maximum Humidity 93    
Minimum Humidity 47    
Precipitation  
Precipitation 0.00 in - - ()
Month to date precipitation 3.64  
Year to date precipitation 17.77  
Sea Level Pressure  
Sea Level Pressure 29.85 in    
Wind  
Wind Speed 5 mph (SW)    
Max Wind Speed 12 mph    
Max Gust Speed 14 mph    
Visibility 10 miles    
Events      
Averages and records for this station are not official NWS values.
T = Trace of Precipitation, MM = Missing Value Source: NWS Daily Summary

Daily Weather History Graph

Daily Weather History Graph

Search for Another Location

Airport or City:

Astronomy

May. 31, 2019 Rise Set
Actual Time 5:56 AM EDT 8:40 PM EDT
Civil Twilight 5:25 AM EDT 9:12 PM EDT
Nautical Twilight 4:45 AM EDT 9:52 PM EDT
Astronomical Twilight 4:00 AM EDT 10:36 PM EDT
Moon 4:28 AM EDT (5/31) 5:49 PM EDT (5/31)
Length of Visible Light 15h 47m
Length of Day
14h 43m
Waning Crescent, 9% of the Moon is Illuminated
May 31
Waning Crescent
Jun 3
New
Jun 10
First Quarter
Jun 17
Full
Jun 25
Last Quarter

Hourly Weather History & Observations

Time (EDT) Temp. Dew Point Humidity Pressure Visibility Wind Dir Wind Speed Gust Speed Precip Events Conditions
12:53 AM 66.0 °F 61.0 °F 84% 29.82 in 10.0 mi SSW 4.6 mph - N/A   Overcast
1:48 AM 66.2 °F 60.8 °F 83% 29.85 in 10.0 mi South 4.6 mph - N/A   Overcast
1:53 AM 66.0 °F 61.0 °F 84% 29.81 in 10.0 mi SSW 3.5 mph - N/A   Overcast
2:53 AM 66.0 °F 61.0 °F 84% 29.81 in 10.0 mi South 4.6 mph - N/A   Overcast
3:53 AM 64.0 °F 60.1 °F 87% 29.81 in 9.0 mi SSW 4.6 mph - N/A   Partly Cloudy
4:53 AM 64.0 °F 61.0 °F 90% 29.82 in 7.0 mi SSW 3.5 mph - N/A   Overcast
5:34 AM 64.9 °F 61.0 °F 87% 29.86 in 8.0 mi South 4.6 mph - N/A   Overcast
5:41 AM 64.9 °F 61.0 °F 87% 29.86 in 9.0 mi South 3.5 mph - N/A   Overcast
5:50 AM 64.4 °F 62.6 °F 94% 29.86 in 8.0 mi South 3.5 mph - N/A   Overcast
5:53 AM 64.9 °F 62.1 °F 90% 29.83 in 9.0 mi South 4.6 mph - N/A   Overcast
6:53 AM 66.0 °F 62.1 °F 87% 29.85 in 7.0 mi WSW 5.8 mph - N/A   Overcast
7:53 AM 66.9 °F 61.0 °F 81% 29.86 in 9.0 mi WSW 4.6 mph - N/A   Overcast
8:00 AM 66.9 °F 61.0 °F 81% 29.90 in 9.0 mi SSW 5.8 mph - N/A   Overcast
8:42 AM 68.0 °F 61.0 °F 78% 29.90 in 10.0 mi SSW 6.9 mph - N/A   Overcast
8:53 AM 68.0 °F 61.0 °F 78% 29.87 in 10.0 mi SSW 5.8 mph - N/A   Overcast
9:53 AM 71.1 °F 62.1 °F 73% 29.88 in 10.0 mi SSW 5.8 mph - N/A   Mostly Cloudy
10:53 AM 73.0 °F 61.0 °F 66% 29.88 in 10.0 mi SSW 6.9 mph - N/A   Mostly Cloudy
11:53 AM 75.9 °F 61.0 °F 60% 29.87 in 10.0 mi SW 8.1 mph - N/A   Partly Cloudy
12:53 PM 77.0 °F 55.9 °F 48% 29.86 in 10.0 mi Variable 4.6 mph - N/A   Scattered Clouds
1:53 PM 77.0 °F 57.0 °F 50% 29.84 in 10.0 mi NW 3.5 mph - N/A   Clear
2:53 PM 75.9 °F 59.0 °F 56% 29.83 in 10.0 mi NW 5.8 mph - N/A   Clear
3:53 PM 75.9 °F 57.9 °F 54% 29.81 in 10.0 mi North 4.6 mph - N/A   Clear
4:53 PM 75.0 °F 61.0 °F 62% 29.83 in 10.0 mi West 4.6 mph - N/A   Mostly Cloudy
5:53 PM 75.0 °F 61.0 °F 62% 29.82 in 10.0 mi Calm Calm - N/A   Overcast
6:53 PM 75.0 °F 59.0 °F 57% 29.81 in 10.0 mi West 3.5 mph - N/A   Clear
7:53 PM 69.1 °F 62.1 °F 78% 29.81 in 10.0 mi North 4.6 mph - N/A   Scattered Clouds
8:53 PM 70.0 °F 61.0 °F 73% 29.83 in 10.0 mi WSW 5.8 mph - N/A   Mostly Cloudy
9:53 PM 69.1 °F 57.0 °F 65% 29.86 in 10.0 mi SW 8.1 mph - N/A   Overcast
10:53 PM 64.9 °F 55.9 °F 73% 29.86 in 10.0 mi WSW 6.9 mph - N/A   Clear
11:53 PM 62.1 °F 55.9 °F 80% 29.87 in 10.0 mi SW 5.8 mph - N/A   Clear